This demonstration page uses our WeatherBlox Daily Observations layout. Learn more.

38.88101, -77.10428

Hourly Observations for August 7, 2016

Temp ( °F °C ) Dew Point ( °F °C ) Humidity (%) Winds ( mph kmh ) Pressure ( in mb ) Visibility ( mi km ) Precip ( " mm )
12:52 am 00:52 Mostly Clear 80 26.7 63 17.2 56 56 NNW 10 17 29.85 1011 10 16.09344 0 0
1:52 am 01:52 Mostly Cloudy 78 25.6 62 16.7 58 58 NNW 12 19 29.85 1011 10 16.09344 0 0
2:52 am 02:52 Partly Cloudy 77 25 61 16.1 58 58 NNW 12 19 29.85 1011 10 16.09344 0 0
3:52 am 03:52 Mostly Cloudy 76 24.4 60 15.6 58 58 NNW 12 19 29.85 1011 10 16.09344 0 0
4:52 am 04:52 Partly Cloudy 75 23.9 59 15 58 58 NNW 8 13 29.88 1012 10 16.09344 0 0
5:52 am 05:52 Mostly Clear 72 22.2 59 15 64 64 N 7 11 29.88 1012 10 16.09344 0 0
6:52 am 06:52 Mostly Sunny 72 22.2 60 15.6 66 66 N 8 13 29.91 1013 10 16.09344 0 0
7:52 am 07:52 Mostly Sunny 75 23.9 60 15.6 60 60 NNW 8 13 29.94 1014 10 16.09344 0 0
8:52 am 08:52 Mostly Sunny 79 26.1 62 16.7 56 56 N 8 13 29.94 1014 10 16.09344 0 0
9:52 am 09:52 Mostly Sunny 83 28.3 61 16.1 48 48 N 9 15 29.94 1014 10 16.09344 0 0
10:52 am 10:52 Mostly Sunny 84 28.9 60 15.6 44 44 E 5 7 29.97 1015 10 16.09344 0 0
11:52 am 11:52 Partly Cloudy 85 29.4 59 15 42 42 ESE 5 7 29.97 1015 10 16.09344 0 0
12:52 pm 12:52 Partly Cloudy 88 31.1 58 14.4 36 36 ESE 6 9 29.97 1015 10 16.09344 0 0
1:52 pm 13:52 Partly Cloudy 88 31.1 56 13.3 34 34 NNE 8 13 29.94 1014 10 16.09344 0 0
2:52 pm 14:52 Mostly Cloudy 91 32.8 56 13.3 31 31 NNW 13 20 29.94 1014 10 16.09344 0.001 0.001
3:52 pm 15:52 Partly Cloudy 91 32.8 58 14.4 33 33 NNW 10 17 29.94 1014 10 16.09344 0 0
4:52 pm 16:52 Partly Cloudy 90 32.2 57 13.9 33 33 NNW 10 17 29.94 1014 10 16.09344 0 0
5:52 pm 17:52 Mostly Cloudy 89 31.7 56 13.3 33 33 N 5 7 29.94 1014 10 16.09344 0 0
6:52 pm 18:52 Partly Cloudy 88 31.1 57 13.9 35 35 N 3 6 29.94 1014 10 16.09344 0 0
7:52 pm 19:52 Partly Cloudy 85 29.4 57 13.9 39 39 N 6 9 29.94 1014 10 16.09344 0 0
8:52 pm 20:52 Partly Cloudy 83 28.3 58 14.4 43 43 NNW 5 7 29.97 1015 10 16.09344 0 0
9:52 pm 21:52 Partly Cloudy 81 27.2 62 16.7 53 53 N 6 9 29.97 1015 10 16.09344 0 0
10:52 pm 22:52 Mostly Cloudy 80 26.7 60 15.6 51 51 SSW 3 6 29.97 1015 10 16.09344 0 0
11:52 pm 23:52 Mostly Cloudy 80 26.7 60 15.6 51 51 SSW 3 6 29.97 1015 10 16.09344 0 0

Powered by AerisWeather